| time (UTC) | temp F | wind direction | speed MPH | gust MPH | rain 1hr in | rain 24hr in | rain mn in | humidity % | barometer mb |
| 20260509191537 | 58 | 206 | 5.0 | 14.0 | 0.00 | 0.02 | 0.02 | 36 | 1009.5 |
| 20260509190052 | 57 | 216 | 8.0 | 25.0 | 0.00 | 0.02 | 0.02 | 36 | 1009.4 |
| 20260509184547 | 57 | 215 | 6.0 | 13.0 | 0.00 | 0.02 | 0.02 | 36 | 1009.5 |
| 20260509183043 | 57 | 242 | 6.0 | 14.0 | 0.00 | 0.02 | 0.02 | 38 | 1009.2 |
| 20260509181550 | 57 | 201 | 4.0 | 15.0 | 0.00 | 0.02 | 0.02 | 40 | 1009.1 |
| 20260509180045 | 57 | 185 | 4.0 | 22.0 | 0.00 | 0.02 | 0.02 | 42 | 1009.0 |
| 20260509174542 | 56 | 165 | 4.0 | 12.0 | 0.00 | 0.02 | 0.02 | 41 | 1008.9 |
| 20260509173041 | 55 | 225 | 7.0 | 17.0 | 0.00 | 0.02 | 0.02 | 41 | 1008.9 |
| 20260509171541 | 55 | 198 | 5.0 | 17.0 | 0.00 | 0.02 | 0.02 | 43 | 1008.9 |
| 20260509170046 | 55 | 222 | 3.0 | 14.0 | 0.00 | 0.02 | 0.02 | 47 | 1008.8 |
| 20260509164544 | 54 | 193 | 6.0 | 16.0 | 0.00 | 0.02 | 0.02 | 46 | 1008.8 |
| 20260509163054 | 54 | 115 | 5.0 | 16.0 | 0.00 | 0.02 | 0.02 | 47 | 1008.6 |
| 20260509161542 | 53 | 228 | 6.0 | 15.0 | 0.00 | 0.02 | 0.02 | 48 | 1008.4 |
| 20260509160042 | 53 | 202 | 6.0 | 14.0 | 0.00 | 0.02 | 0.02 | 49 | 1008.2 |
| 20260509154547 | 54 | 213 | 4.0 | 21.0 | 0.00 | 0.02 | 0.02 | 51 | 1008.0 |
| 20260509153050 | 54 | 297 | 4.0 | 12.0 | 0.00 | 0.02 | 0.02 | 54 | 1007.8 |
| 20260509151544 | 53 | 252 | 6.0 | 14.0 | 0.00 | 0.02 | 0.02 | 53 | 1007.5 |
| 20260509150042 | 53 | 210 | 4.0 | 11.0 | 0.00 | 0.02 | 0.02 | 59 | 1007.1 |
| 20260509144540 | 53 | 218 | 4.0 | 12.0 | 0.00 | 0.02 | 0.02 | 59 | 1007.1 |
| 20260509143051 | 52 | 202 | 4.0 | 11.0 | 0.00 | 0.02 | 0.02 | 62 | 1006.8 |
| 20260509141546 | 51 | 207 | 3.0 | 9.0 | 0.00 | 0.02 | 0.02 | 66 | 1006.7 |
| 20260509140050 | 50 | 278 | 3.0 | 12.0 | 0.00 | 0.02 | 0.02 | 68 | 1006.7 |
| 20260509134552 | 50 | 195 | 5.0 | 12.0 | 0.00 | 0.02 | 0.02 | 69 | 1006.5 |
| 20260509133053 | 50 | 199 | 4.0 | 12.0 | 0.00 | 0.02 | 0.02 | 73 | 1006.3 |
| 20260509131542 | 49 | 244 | 3.0 | 7.0 | 0.00 | 0.02 | 0.02 | 77 | 1006.2 |
| 20260509130044 | 48 | 152 | 3.0 | 10.0 | 0.00 | 0.02 | 0.02 | 82 | 1006.0 |
| 20260509124538 | 47 | 200 | 2.0 | 9.0 | 0.00 | 0.02 | 0.02 | 83 | 1005.6 |
| 20260509123047 | 47 | 201 | 2.0 | 8.0 | 0.00 | 0.02 | 0.02 | 84 | 1005.5 |
| 20260509121542 | 47 | 219 | 4.0 | 10.0 | 0.00 | 0.02 | 0.02 | 87 | 1005.2 |
| 20260509120048 | 47 | 190 | 1.0 | 9.0 | 0.00 | 0.02 | 0.02 | 88 | 1005.1 |
| 20260509114543 | 47 | 245 | 3.0 | 7.0 | 0.00 | 0.02 | 0.02 | 88 | 1004.8 |
| 20260509113036 | 47 | 198 | 2.0 | 9.0 | 0.00 | 0.02 | 0.02 | 89 | 1004.3 |
| 20260509111544 | 47 | 0 | 2.0 | 6.0 | 0.00 | 0.02 | 0.02 | 89 | 1004.0 |
| 20260509110043 | 47 | 207 | 0.0 | 3.0 | 0.01 | 0.02 | 0.02 | 89 | 1003.5 |
| 20260509104541 | 47 | 207 | 0.0 | 4.0 | 0.02 | 0.02 | 0.02 | 88 | 1003.3 |
| 20260509103041 | 48 | 217 | 0.0 | 3.0 | 0.02 | 0.02 | 0.02 | 88 | 1003.2 |
| 20260509101541 | 48 | 192 | 0.0 | 3.0 | 0.02 | 0.02 | 0.02 | 86 | 1003.0 |
| 20260509100039 | 48 | 221 | 0.0 | 3.0 | 0.01 | 0.01 | 0.01 | 85 | 1002.9 |
| 20260509094547 | 48 | 0 | 0.0 | 1.0 | 0.00 | 0.00 | 0.00 | 83 | 1003.0 |
| 20260509093041 | 49 | 0 | 0.0 | 3.0 | 0.00 | 0.00 | 0.00 | 80 | 1002.6 |
| 20260509091541 | 50 | 221 | 0.0 | 5.0 | 0.00 | 0.00 | 0.00 | 77 | 1003.2 |
| 20260509090038 | 51 | 0 | 2.0 | 8.0 | 0.00 | 0.00 | 0.00 | 73 | 1003.3 |
| 20260509084540 | 51 | 318 | 2.0 | 5.0 | 0.00 | 0.00 | 0.00 | 70 | 1002.9 |
| 20260509083049 | 52 | 188 | 2.0 | 8.0 | 0.00 | 0.00 | 0.00 | 69 | 1002.9 |
| 20260509081546 | 52 | 196 | 1.0 | 9.0 | 0.00 | 0.00 | 0.00 | 66 | 1002.9 |
| 20260509080105 | 52 | 213 | 2.0 | 12.0 | 0.00 | 0.00 | 0.00 | 63 | 1002.9 |
| 20260509074541 | 53 | 189 | 3.0 | 8.0 | 0.00 | 0.00 | 0.00 | 56 | 1002.7 |
| 20260509073117 | 52 | 206 | 5.0 | 10.0 | 0.00 | 0.00 | 0.00 | 52 | 1002.6 |
| 20260509071542 | 50 | 202 | 4.0 | 12.0 | 0.00 | 0.00 | 0.00 | 55 | 1002.6 |
| 20260509070043 | 48 | 0 | 0.0 | 2.0 | 0.00 | 0.00 | 0.00 | 65 | 1002.3 |
| 20260509064547 | 48 | 0 | 0.0 | 0.0 | 0.00 | 0.00 | 0.00 | 64 | 1002.3 |
| 20260509063040 | 47 | 0 | 0.0 | 0.0 | 0.00 | 0.00 | 0.00 | 61 | 1002.4 |
| 20260509061549 | 47 | 0 | 0.0 | 0.0 | 0.00 | 0.00 | 0.00 | 60 | 1002.1 |
| 20260509060039 | 47 | 0 | 0.0 | 2.0 | 0.00 | 0.00 | 0.00 | 58 | 1002.2 |
| 20260509054548 | 48 | 0 | 0.0 | 0.0 | 0.00 | 0.00 | 0.00 | 57 | 1001.8 |
| 20260509053049 | 48 | 0 | 0.0 | 0.0 | 0.00 | 0.00 | 0.00 | 53 | 1002.1 |
| 20260509051545 | 49 | 0 | 0.0 | 0.0 | 0.00 | 0.00 | 0.00 | 51 | 1002.4 |
| 20260509050041 | 49 | 0 | 0.0 | 0.0 | 0.00 | 0.00 | 0.00 | 49 | 1002.9 |
| 20260509044538 | 50 | 0 | 0.0 | 0.0 | 0.00 | 0.00 | 0.00 | 48 | 1002.5 |
| 20260509043052 | 52 | 0 | 0.0 | 0.0 | 0.00 | 0.00 | 0.00 | 44 | 1002.9 |
| 20260509041540 | 53 | 0 | 0.0 | 0.0 | 0.00 | 0.00 | 0.00 | 41 | 1003.0 |
| 20260509040042 | 55 | 0 | 0.0 | 0.0 | 0.00 | 0.00 | 0.00 | 38 | 1003.1 |
| 20260509034540 | 56 | 203 | 0.0 | 5.0 | 0.00 | 0.00 | 0.00 | 36 | 1003.2 |
| 20260509033046 | 57 | 0 | 1.0 | 4.0 | 0.00 | 0.00 | 0.00 | 35 | 1003.1 |
| 20260509031547 | 57 | 209 | 0.0 | 3.0 | 0.00 | 0.00 | 0.00 | 34 | 1003.0 |
| 20260509030043 | 59 | 201 | 1.0 | 5.0 | 0.00 | 0.00 | 0.00 | 33 | 1003.0 |
| 20260509024541 | 59 | 175 | 4.0 | 10.0 | 0.00 | 0.00 | 0.00 | 32 | 1002.9 |
| 20260509023041 | 60 | 201 | 5.0 | 12.0 | 0.00 | 0.00 | 0.00 | 31 | 1002.9 |
| 20260509021537 | 61 | 181 | 4.0 | 12.0 | 0.00 | 0.00 | 0.00 | 31 | 1002.7 |
| 20260509020037 | 62 | 186 | 5.0 | 15.0 | 0.00 | 0.00 | 0.00 | 31 | 1002.5 |
| 20260509014543 | 63 | 206 | 8.0 | 17.0 | 0.00 | 0.00 | 0.00 | 31 | 1002.3 |
| 20260509013058 | 64 | 218 | 6.0 | 15.0 | 0.00 | 0.00 | 0.00 | 31 | 1001.8 |
| 20260509011542 | 65 | 163 | 4.0 | 19.0 | 0.00 | 0.00 | 0.00 | 30 | 1001.5 |
| 20260509010037 | 66 | 212 | 5.0 | 19.0 | 0.00 | 0.00 | 0.00 | 27 | 1001.4 |
| 20260509004559 | 67 | 196 | 4.0 | 16.0 | 0.00 | 0.00 | 0.00 | 27 | 1001.2 |
| 20260509003051 | 68 | 191 | 7.0 | 18.0 | 0.00 | 0.00 | 0.00 | 25 | 1001.2 |
| 20260509001544 | 69 | 209 | 6.0 | 16.0 | 0.00 | 0.00 | 0.00 | 24 | 1001.1 |
| 20260509000042 | 69 | 200 | 7.0 | 17.0 | 0.00 | 0.00 | 0.00 | 24 | 1001.1 |
| 20260508234541 | 69 | 143 | 4.0 | 13.0 | 0.00 | 0.00 | 0.00 | 24 | 1001.1 |
| 20260508233056 | 70 | 269 | 9.0 | 17.0 | 0.00 | 0.00 | 0.00 | 23 | 1001.2 |
| 20260508231544 | 70 | 229 | 3.0 | 12.0 | 0.00 | 0.00 | 0.00 | 25 | 1001.2 |
| 20260508230055 | 70 | 202 | 4.0 | 11.0 | 0.00 | 0.00 | 0.00 | 25 | 1001.3 |
| 20260508224544 | 70 | 171 | 3.0 | 13.0 | 0.00 | 0.00 | 0.00 | 27 | 1001.2 |
| 20260508223041 | 69 | 144 | 2.0 | 9.0 | 0.00 | 0.00 | 0.00 | 27 | 1001.4 |
| 20260508221543 | 70 | 131 | 3.0 | 10.0 | 0.00 | 0.00 | 0.00 | 27 | 1001.4 |
| 20260508220046 | 70 | 231 | 3.0 | 9.0 | 0.00 | 0.00 | 0.00 | 26 | 1001.6 |
| 20260508214537 | 70 | 201 | 6.0 | 14.0 | 0.00 | 0.00 | 0.00 | 25 | 1001.8 |
| 20260508213043 | 70 | 213 | 3.0 | 11.0 | 0.00 | 0.00 | 0.00 | 26 | 1001.8 |
| 20260508211543 | 69 | 237 | 4.0 | 10.0 | 0.00 | 0.00 | 0.00 | 26 | 1001.9 |
| 20260508210057 | 70 | 176 | 4.0 | 10.0 | 0.00 | 0.00 | 0.00 | 27 | 1002.2 |
| 20260508204541 | 71 | 124 | 5.0 | 13.0 | 0.00 | 0.00 | 0.00 | 26 | 1002.4 |
| 20260508203037 | 71 | 153 | 4.0 | 12.0 | 0.00 | 0.00 | 0.00 | 25 | 1002.5 |
| 20260508201546 | 70 | 204 | 4.0 | 15.0 | 0.00 | 0.00 | 0.00 | 26 | 1002.9 |
| 20260508200048 | 70 | 219 | 3.0 | 13.0 | 0.00 | 0.00 | 0.00 | 28 | 1003.0 |
| 20260508194547 | 70 | 139 | 4.0 | 11.0 | 0.00 | 0.00 | 0.00 | 26 | 1003.3 |
| 20260508193047 | 70 | 207 | 2.0 | 9.0 | 0.00 | 0.00 | 0.00 | 28 | 1003.5 |